Regional Weather Roundup
Issued by NWS

Home | Current Version | Previous Version | Graphics & Text | Print | Product List | Glossary On
Versions: 1 2 3 4 5 6 7 8 9 10 11 12 13 14 15 16 17 18 19 20 21 22 23 24 25 26 27 28 29 30 31 32 33 34 35 36 37 38 39 40 41 42 43 44 45 46 47 48 49 50
000
ASUS43 KMKX 020300
RWRWI

WISCONSIN REGIONAL WEATHER ROUNDUP
NATIONAL WEATHER SERVICE MILWAUKEE/SULLIVAN WI
1000 PM CDT WED JUL 01 2015

NOTE: "FAIR" INDICATES FEW OR NO CLOUDS BELOW 12,000 FEET WITH NO
SIGNIFICANT WEATHER AND/OR OBSTRUCTIONS TO VISIBILITY.

WIZ001-002-006>008-014>016-023>028-020400-
NORTHWEST WISCONSIN

CITY           SKY/WX    TMP DP  RH WIND       PRES   REMARKS
SUPERIOR ARPT  PTCLDY    57  53  88 NE3       30.01R
ASHLAND        CLEAR     50  48  93 CALM      30.02S
HAYWARD        CLEAR     60  57  89 CALM      30.03R
SIREN          CLEAR     61  54  77 CALM      30.02R
CUMBERLAND     CLEAR     61  55  82 CALM      30.02R
RICE LAKE      CLEAR     61  56  83 CALM      30.03R
CHETEK         CLEAR     63  55  77 CALM      30.02R
LADYSMITH      CLEAR     59  52  78 NE6       30.04R
EAU CLAIRE     CLEAR     60  55  83 CALM      30.00R
MENOMONIE      NOT AVBL
NEW RICHMOND   CLEAR     61  55  81 CALM      30.02R
OSCEOLA        CLEAR     63  59  87 CALM      30.04R
$$

WIZ003>005-009-010-017-018-020400-
NORTH CENTRAL WISCONSIN

CITY           SKY/WX    TMP DP  RH WIND       PRES   REMARKS
MANITOWISH WTR CLEAR     51  48  90 CALM      30.04S
ARBOR VITAE    CLEAR     57  50  77 CALM      30.04R
WOODRUFF       CLEAR     57  50  77 CALM      30.04R
RHINELANDER    CLEAR     54  47  77 CALM      30.05R
EAGLE RIVER    CLEAR     52  46  82 CALM      30.04R
LAND O LAKES   CLEAR     51  47  86 CALM      30.06R
PHILLIPS       CLEAR     55  48  76 CALM      30.03R
TOMAHAWK       NOT AVBL
MEDFORD        CLEAR     54  49  84 CALM      30.03R
MERRILL        CLEAR     54  49  83 CALM      30.03R
$$

WIZ029-030-035-036-043>047-020400-
CENTRAL WISCONSIN

CITY           SKY/WX    TMP DP  RH WIND       PRES   REMARKS
WAUSAU         CLEAR     64  45  49 N5        30.01R
MOSINEE        CLEAR     63  46  55 N3        30.02R
MARSHFIELD     CLEAR     59  50  72 CALM      30.02R
STEVENS POINT  CLEAR     56  50  81 CALM      30.01S
WAUPACA        CLEAR     61  53  75 CALM      30.01R
WAUTOMA        NOT AVBL
WISC RAPIDS    CLEAR     57  50  77 CALM      30.02R
CAMP DOUGLAS   NOT AVBL
$$

WIZ011>013-019>022-031-037>040-048>050-020400-
NORTHEAST WISCONSIN

CITY           SKY/WX    TMP DP  RH WIND       PRES   REMARKS
ANTIGO         CLEAR     55  50  82 NE5       30.04R
SHAWANO        NOT AVBL
OCONTO         CLEAR     56  51  82 SE3       30.02R
STURGEON BAY   CLEAR     54  45  71 CALM      30.06R
GREEN BAY      CLEAR     57  51  80 SE3       30.03R
MANITOWOC      NOT AVBL
APPLETON       CLEAR     63  50  63 VRB3      30.02R
CLINTONVILLE   CLEAR     59  50  72 E7        30.01R
OSHKOSH        CLEAR     57  51  80 S5        30.02R
$$

WIZ032>034-041-042-053>061-020400-
SOUTHWEST WISCONSIN

CITY           SKY/WX    TMP DP  RH WIND       PRES   REMARKS
LA CROSSE      CLEAR     62  54  74 CALM      30.01R
SPARTA         CLEAR     55  49  81 CALM      30.02R
VIROQUA        CLEAR     59  54  82 CALM      30.02R
BOSCOBEL       CLEAR     54  52  93 CALM      30.01R
PRAIRIE DU CHI CLEAR     58  54  86 CALM      30.00R
PLATTEVILLE    MOCLDY    58  54  85 N5        30.00R
$$

WIZ056-057-062-063-064-067-068-020400-
SOUTH CENTRAL WISCONSIN

CITY           SKY/WX    TMP DP  RH WIND       PRES   REMARKS
REEDSBURG      CLEAR     59  52  78 E3        30.00R
BARABOO/DELLS  CLEAR     58  50  76 E5        30.01R
LONE ROCK      NOT AVBL
MINERAL POINT  CLEAR     61  52  72 CALM      30.00S
MADISON        CLEAR     59  51  75 E6        30.01R
MIDDLETON      CLEAR     57  55  92 CALM      30.01R
WATERTOWN      CLEAR     55  55 100 CALM      30.02R
MONROE         PTCLDY    61  54  77 N3        30.00R
JANESVILLE     CLEAR     57  54  88 E6        30.01R
$$

WIZ051-052-058>065-066-070>072-020400-
SOUTHEAST WISCONSIN

CITY           SKY/WX    TMP DP  RH WIND       PRES   REMARKS
MILWAUKEE      PTCLDY    53  49  86 N6        30.03S
WAUKESHA       CLEAR     52  48  87 E3        30.03S
MILWAUKEE/TIMM CLEAR     54  46  76 NE3       30.03S
RACINE         PTCLDY    53  49  86 N5        30.03S
BURLINGTON     PTCLDY    50  49  96 CALM      30.02R
KENOSHA        PTCLDY    53  49  86 NE5       30.02R
FOND DU LAC    CLEAR     57  54  89 S5        30.03R
SHEBOYGAN      CLEAR     52  50  93 CALM      30.04R
WEST BEND      CLEAR     52  50  93 CALM      30.03R
JUNEAU         CLEAR     56  53  90 SE6       30.03R
$$

LSZ147-162-020400-
LAKE SUPERIOR

STATION/POSITION TIME  TEMP    WIND        PRES    WAVE
                       AIR SEA DIR/SP/G            HT/PER
                 (UTC) (F)     (DEG/KT/KT) (MB)    (FT/S)
W MID LAKE BUOY  0150   46 39   70/  2/  2 1016.8S   0
DEVILS ISLAND    0200   60     150/  7/  8 1016.3R
SAXON HARBOR     0200   56        CALM     1016.3
$$

LMZ867-665-643>646-020400-
LAKE MICHIGAN

STATION/POSITION TIME  TEMP    WIND        PRES    WAVE
                       AIR SEA DIR/SP/G            HT/PER
                 (UTC) (F)     (DEG/KT/KT) (MB)    (FT/S)
CHAMBERS ISLAND  0200   62      40/ 11/ 15 1016.3R
S GREEN BAY BUOY 0230   61 68  110/ 12/ 12 1018.0R
N MID LAKE BUOY  0150   49 42   10/  4/  6 1016.3R   1
NORTHPORT PIER   0200   59      40/  6/  8 1016.3R
SISTER BAY       0214   56        CALM       N/A
ALGOMA LAKESHORE 0210             CALM       N/A
KEWAUNEE LAKESHO 0200   56      CALM  /  2 1015.9R
SHEBOYGAN LAKESH 0200   55     110/  2/  2 1016.9R
PORT WASHINGTON  0200   56      90/  3/  4 1017.3R
ATWATER BUOY     0200   56     360/  6/  8 1017.8R
MILWAUKEE LAKESH 0200   56      40/  4/  5   N/A
KENOSHA   LAKESH 0200   56      20/ 12/ 13 1015.9F
$$

TC  - TEMPERATURE IN CELSIUS
VSB - VISIBILITY IN STATUTE MILES
WCI - WIND CHILL INDEX
HX  - HEAT INDEX



USA.gov is the U.S. government's official web portal to all federal, state and local government web resources and services.